www.pogodaiklimat.ru
ПОГОДА в Рединге
Время
и дата
07:54 25.09
08:54 25.09
09:54 25.09
10:54 25.09
11:38 25.09
11:46 25.09
11:54 25.09
12:17 25.09
12:27 25.09
12:48 25.09
12:54 25.09
13:38 25.09
13:54 25.09
14:54 25.09
15:54 25.09
16:54 25.09
17:54 25.09
18:40 25.09
18:54 25.09
19:10 25.09
19:43 25.09
19:50 25.09
19:54 25.09
20:00 25.09
20:07 25.09
20:15 25.09
20:30 25.09
20:43 25.09
20:54 25.09
21:54 25.09
22:17 25.09
22:27 25.09
22:47 25.09
22:54 25.09
23:22 25.09
23:25 25.09
23:37 25.09
23:40 25.09
23:49 25.09
23:54 25.09
00:00 26.09
00:09 26.09
00:54 26.09
00:59 26.09
01:05 26.09
01:49 26.09
01:54 26.09
01:58 26.09
Ветер
(напр.,м/с)
Видим. Явления Облачность Т
(С)
Тd
(С)
f
(%)
Тe
(С)
Тes
(С)
Комфортность P
(гПа)
Po
(гПа)
Тmin
(С)
Tmax
(С)
R
(мм)
R24
(мм)
S
(см)
штиль 0 16 км 8/8 1950 m
[Ac]
+15.0 +12.2 83 +15 +15 1008.2 995.2
Ю 2 16 км 2/0 2250 m
[Ac]
+16.7 +12.8 78 +17 +19 1007.7 994.9
Ю 2 16 км 10/2 1800 m
[Ac]
+17.2 +13.3 78 +18 +19 1007.1 994.2
З 2 16 км 8/0 3600 m
[Ac]
+20.0 +14.4 70 +23 +27 комфорт 1006.8 993.8
ЮВ 3 3 км сильный дождь 10/10 1170 м +17.2 +13.9 81 +17 +17 992.8
штиль 0 5 км слабый дождь, дымка 10/8 1020 m
[Ac]
+17.2 +15.6 90 +17 +18 993.2
штиль 0 16 км слабый дождь 10/5 1290 m
[Ac]
+17.8 +14.4 80 +18 +20 1005.9 992.8
З 4 0 м гроза 10/8 1470 m
[Ac]
+17.8 +15.0 84 +18 +18 993.8
З 3 0 м гроза с дождем, дымка 10/10 1440 м +16.7 +15.0 90 +16 +16 993.8
Ю 3 5 км сильный дождь, дымка 10/10 1470 м +17.0 +16.0 94 +17 +17 993.5
Ю 2 3 км сильный дождь, дымка 10/8 1470 m
[Ac]
+16.7 +15.6 93 +17 +18 1006.5 993.5 +13.9 +20.6 4.1
Ю 4 6 км слабый дождь, дымка 10/0 2100 m
[Ac]
+16.7 +15.6 93 +16 +18 991.5
Ю 3 6 км дымка 8/0 2700 m
[Ac]
+17.2 +15.0 87 +17 +21 1004.6 991.8
штиль 0 16 км 2/0 3300 m
[Ac]
+17.8 +15.6 87 +18 +28 1003.9 990.8
З 2 16 км ясно +19.4 +15.0 76 +22 +28 комфорт 1003.5 990.5 3.3
нст 2 16 км 2/0 2850 m
[Ac]
+18.9 +15.0 78 +21 +23 комфорт 1003.0 990.2
штиль 0 16 км 10/2 1800 m
[Ac]
+17.2 +15.6 90 +17 +17 1002.8 989.8
С 2 0 м гроза, дымка 10/8 1320 m
[Ac]
+16.7 +15.6 93 +17 +17 990.2
штиль 0 0 м гроза 8/2 1290 m
[Ac]
+16.7 +16.1 96 +17 +17 1003.1 990.2 +16.7 +19.4 4.6
штиль 0 16 км 5/2 1380 m
[Ac]
+17.2 +15.6 90
СЗ 6 0 м гроза 8/8 690 м +17.2 +15.6 90 +16 +16 991.5
СЗ 10
{12}
0 м гроза, слабый дождь 10/10 750 м +17.0 +14.0 82 +15 +15 991.8
СЗ 8
{12}
0 м гроза, сильный дождь, дымка 10/10 750 м +16.7 +14.4 86 +15 +15 1004.5 991.5
З 5 3 км гроза, сильный дождь, дымка 10/10 690 м +16.1 +15.0 93 +15 +15 991.8
СЗ 4 3 км гроза, сильный дождь, дымка 10/10 660 м +15.6 +15.0 96 +15 +15 991.5
штиль 0 4 км гроза, сильный дождь, дымка 10/10 1020 м +15.6 +15.0 96 +15 +15 991.5
Ю 3 0 м гроза, слабый дождь 10/8 1140 m
[Ac]
+15.6 +14.4 93 +15 +15 991.5
Ю 2 16 км слабый дождь 10/5 1200 m
[Ac]
+15.6 +15.0 96 +15 +15 991.5
Ю 2 16 км 10/2 1800 m
[Ac]
+15.6 +15.0 96 +15 +15 1004.5 991.5
штиль 0 16 км ясно +14.4 +13.9 97 +14 +14 1005.0 992.2 10.9
ЮЗ 2 3 км дымка ясно +13.9 +13.3 96 +13 +13 992.2
ЮЗ 2 8 км дымка ясно +15.0 +13.9 93 +15 +15 992.2
штиль 0 3 км дымка ясно +14.4 +13.9 97 +14 +14 991.8
З 2 14 км ясно +14.4 +13.9 97 +14 +14 1004.8 991.8
штиль 0 2 км дымка ?/? +13.9 +12.8 93 +13 +13 992.2
штиль 0 800 м туман ?/? +13.3 +12.8 97 +13 +13 992.2
штиль 0 2 км дымка ?/? +13.3 +13.3 100 +13 +13 992.2
штиль 0 3 км дымка 2/2 60 м +13.3 +13.3 100 +13 +13 992.2
ЮВ 2 1 км дымка ?/? +13.0 +13.0 100 +12 +12 992.2
ЮВ 2 800 м туман ?/? +13.3 +12.8 97 +12 +12 1005.2 992.2
ЮВ 2 2 км дымка ясно +12.8 +12.8 100 +12 +12 992.2
Ю 2 5 км дымка 5/0 3000 m
[Ac]
+13.3 +13.3 100 +12 +12 992.2
штиль 0 3 км дымка ясно +13.3 +12.8 97 +13 +13 1005.2 992.2 +12.8 +17.2 10.9
штиль 0 2 км дымка ?/? +12.8 +12.8 100 +12 +12 992.2
штиль 0 5 км дымка ясно +13.3 +12.8 97 +13 +13 992.2
ЮВ 2 3 км дымка ясно +13.0 +13.0 100 +12 +12 992.2
Ю 2 2 км дымка ясно +12.8 +12.2 96 +12 +12 1005.0 992.2
Ю 2 5 км дымка ясно +12.8 +12.2 96 +12 +12 992.2
Местоположение метеостанции Reading Regional Airport: широта 40.3733 долгота -75.9594 высота над уровнем моря 105 м.
В архиве по умолчанию представлена погода в Рединге за последние 1-2 суток. Обновление информации о фактической погоде в базе происходит ежечасно! Архивные данные за месяц целиком и за предыдущие месяцы Вы можете получить, выбрав интересующий диапазон дат из раскрывающегося списка и нажав кнопку "Ввод!".
Внимание! Архив погоды МЕТАР в базе сайта по станциям, не включенным в климатический монитор, хранится не более 60 дней. Нет смысла пытаться выбрать более раннюю дату.
*Определитесь, кто Вы:
Внимание! Время в таблицах - местное (без учета летнего времени). Для получения всемирного времени необходимо вычесть поправку, которая равна -5 ч.
Смотрите также архив погоды в соседних городах и на ближайших метеорологических станциях:
Партнеры нашего сайта:      
Пояснения к столбцам:
  • Ветер - указаны скорость ветра в м/с - средняя за 10 мин, порывы в срок и между сроками (в фигурных скобках) и направление, откуда дует ветер: С - северный,
  • СВ - северо-восточный, В - восточный, ЮВ - юго-восточный, Ю - южный, ЮЗ - юго-западный, З - западный, СЗ - северо-западный.
  • Видимость - горизонтальная дальность видимости в метрах или километрах. При видимости от 1 до 10 км при отсутствии осадков обычно наблюдается дымка, при ухудшении видимости до 1 км и менее - туман. В сухую погоду видимость может ухудшаться дымом, пылью или мглою.
  • Явления - указаны атмосферные явления, наблюдавшиеся в срок или в последний час перед сроком; фигурными скобками обозначены явления, наблюдавшиеся между сроками (за 1-3 часа до срока); квадратными скобками обозначены град или гололедные отложения с указанием их диаметра в мм.
  • Облачность - указаны через наклонную черту общая и нижняя облачность в баллах и высота нижней границы облаков в метрах; квадратными скобками обозначены формы облаков: Ci - перистые, Cs - перисто-слоистые, Cc - перисто-кучевые, Ac - высококучевые, As - высокослоистые, Sc - слоисто-кучевые, Ns - слоисто-дождевые, Cu - кучевые, Cb - кучево-дождевые. Подробнее классификацию облаков см. в Атласе облаков (PDF).
  • T - Температура воздуха - температура, измеренная на высоте 2 м над землей.
  • Td - Температура точки росы - температура, при понижении до которой содержащийся в воздухе водяной пар достигнет насыщения.
  • f - Относительная влажность воздуха - влажноcть воздуха, измеренная на высоте 2 м над землей.
  • Te - Эффективная температура - температура, которую ощущает одетый по сезону человек в тени. Характеристика душности погоды. При расчете учитывается влияние влажности воздуха и скорости ветра на теплоощущения человека.
  • Tes - Эффективная температура на солнце - температура, которую ощущает человек, с поправкой на солнечный нагрев. Характеристика знойности погоды. Зависит от высоты солнца над горизонтом, облачности и скорости ветра. Ночью, в пасмурную погоду, а также при ветре 12 м/с и более поправка равна нулю.
  • P - Атмосферное давление - приведенное к уровню моря атмосферное давление.
  • Po - Атмосферное давление - измеренное на уровне метеостанции атмосферное давление.
  • Tmin - Минимальная температура - минимум температуры воздуха на высоте 2 м над землей.
  • Tmax - Максимальная температура - максимум температуры воздуха на высоте 2 м над землей.
  • R - Количество осадков - Количество выпавших осадков за период времени, мм. При наведении курсора мыши на число - период времени, за который выпало указанное количество осадков.
  • R24 - Количество осадков - Количество выпавших осадков за 24 часа, мм.
  • S - Снежный покров - Высота снежного покрова, см. При наведении курсора мыши на число - состояние снежного покрова и степень покрытия местности в баллах.